When you browse on this site, cookies collect data to enhance your experience and personalize the content and advertising you see.
Visit our Privacy Policy to learn more. By continuing to use the site, you agree to this use of cookies and data.
  • In United Kingdom
  • List of Countries
  • For 7 days
  • Water Temperature
  • Satellite Maps
  • Weather Map
  • Weather Widgets
  • user-avatar
    Login

    Hourly Weather Monrovia

    Today, 26 April, Friday

    Time Temperature Precipitation Wind Pressure Humidity
    00:00 +28°C° 0 mm 2 mps 758 mmHg 91%
    01:00 +28°C° 0 mm 2 mps 758 mmHg 91%
    02:00 +28°C° 0 mm 1 mps 758 mmHg 91%
    03:00 +28°C° 0 mm 1 mps 758 mmHg 92%
    04:00 +28°C° 0 mm 1 mps 758 mmHg 92%
    05:00 +26°C° 0 mm 0 mps 758 mmHg 93%
    06:00 +27°C° 0 mm 0 mps 758 mmHg 87%
    07:00 +29°C° 0 mm 0 mps 758 mmHg 82%
    08:00 +30°C° 0 mm 0 mps 759 mmHg 76%
    09:00 +33°C° 0 mm 1 mps 759 mmHg 70%
    10:00 +35°C° 0 mm 1 mps 759 mmHg 63%
    11:00 +37°C° 0 mm 2 mps 758 mmHg 57%
    12:00 +36°C° 0.3 mm 2 mps 758 mmHg 61%
    13:00 +35°C° 0.3 mm 3 mps 757 mmHg 65%
    14:00 +34°C° 0.3 mm 3 mps 757 mmHg 69%
    15:00 +33°C° 0.4 mm 3 mps 757 mmHg 74%
    16:00 +31°C° 0.4 mm 3 mps 757 mmHg 79%
    17:00 +30°C° 0.4 mm 3 mps 757 mmHg 83%
    18:00 +30°C° 0.7 mm 3 mps 757 mmHg 85%
    19:00 +29°C° 0.7 mm 3 mps 758 mmHg 88%
    20:00 +29°C° 0.7 mm 2 mps 758 mmHg 90%
    21:00 +29°C° 0 mm 2 mps 758 mmHg 90%
    22:00 +29°C° 0 mm 3 mps 758 mmHg 90%
    23:00 +28°C° 0 mm 3 mps 758 mmHg 90%

    Tomorrow, 27 April, Saturday

    Time Temperature Precipitation Wind Pressure Humidity
    00:00 +28°C° 0.5 mm 3 mps 758 mmHg 91%
    01:00 +28°C° 0.5 mm 3 mps 757 mmHg 92%
    02:00 +28°C° 0.5 mm 3 mps 757 mmHg 93%
    03:00 +28°C° 1.5 mm 3 mps 757 mmHg 93%
    04:00 +28°C° 1.5 mm 3 mps 757 mmHg 93%
    05:00 +28°C° 1.5 mm 3 mps 757 mmHg 93%
    06:00 +29°C° 1.7 mm 2 mps 758 mmHg 89%
    07:00 +30°C° 1.7 mm 2 mps 758 mmHg 86%
    08:00 +30°C° 1.7 mm 1 mps 759 mmHg 82%
    09:00 +32°C° 0.2 mm 2 mps 759 mmHg 75%
    10:00 +34°C° 0.2 mm 3 mps 758 mmHg 68%
    11:00 +36°C° 0.2 mm 3 mps 758 mmHg 61%
    12:00 +36°C° 0 mm 4 mps 758 mmHg 61%
    13:00 +35°C° 0 mm 4 mps 757 mmHg 61%
    14:00 +35°C° 0 mm 4 mps 756 mmHg 61%
    15:00 +34°C° 0 mm 4 mps 757 mmHg 67%
    16:00 +33°C° 0 mm 4 mps 757 mmHg 72%
    17:00 +32°C° 0 mm 4 mps 757 mmHg 77%
    18:00 +30°C° 0 mm 4 mps 757 mmHg 80%
    19:00 +30°C° 0 mm 3 mps 758 mmHg 82%
    20:00 +29°C° 0 mm 3 mps 758 mmHg 85%
    21:00 +29°C° 0 mm 3 mps 758 mmHg 86%
    22:00 +29°C° 0 mm 3 mps 758 mmHg 86%
    23:00 +29°C° 0 mm 3 mps 759 mmHg 87%

    Day after tomorrow, 28 April, Sunday

    Time Temperature Precipitation Wind Pressure Humidity
    00:00 +29°C° 0 mm 3 mps 758 mmHg 88%
    01:00 +29°C° 0 mm 3 mps 758 mmHg 88%
    02:00 +28°C° 0 mm 3 mps 757 mmHg 89%
    03:00 +28°C° 0 mm 3 mps 757 mmHg 89%
    04:00 +28°C° 0 mm 3 mps 757 mmHg 89%
    05:00 +28°C° 0 mm 3 mps 757 mmHg 89%
    06:00 +30°C° 0 mm 3 mps 758 mmHg 84%
    07:00 +31°C° 0 mm 3 mps 758 mmHg 79%
    08:00 +33°C° 0 mm 3 mps 759 mmHg 74%
    09:00 +33°C° 0.1 mm 3 mps 759 mmHg 72%
    10:00 +34°C° 0.1 mm 3 mps 759 mmHg 70%
    11:00 +34°C° 0.1 mm 3 mps 758 mmHg 67%
    12:00 +34°C° 0.1 mm 4 mps 758 mmHg 67%
    13:00 +34°C° 0.1 mm 4 mps 757 mmHg 67%
    14:00 +34°C° 0.1 mm 4 mps 756 mmHg 67%
    15:00 +34°C° 0.6 mm 4 mps 756 mmHg 71%
    16:00 +33°C° 0.6 mm 3 mps 756 mmHg 75%
    17:00 +31°C° 0.6 mm 3 mps 756 mmHg 78%
    18:00 +31°C° 0 mm 3 mps 757 mmHg 81%
    19:00 +30°C° 0 mm 3 mps 757 mmHg 84%
    20:00 +29°C° 0 mm 2 mps 758 mmHg 87%
    21:00 +29°C° 0.2 mm 3 mps 758 mmHg 88%
    22:00 +29°C° 0.2 mm 3 mps 758 mmHg 89%
    23:00 +29°C° 0.2 mm 3 mps 758 mmHg 89%

    29 April, Monday

    Time Temperature Precipitation Wind Pressure Humidity
    00:00 +29°C° 0.1 mm 3 mps 758 mmHg 90%
    01:00 +29°C° 0.1 mm 3 mps 757 mmHg 90%
    02:00 +29°C° 0.1 mm 3 mps 756 mmHg 91%
    03:00 +29°C° 0 mm 3 mps 757 mmHg 91%
    04:00 +28°C° 0 mm 3 mps 757 mmHg 91%
    05:00 +28°C° 0 mm 3 mps 757 mmHg 92%
    06:00 +29°C° 0.1 mm 3 mps 757 mmHg 88%
    07:00 +30°C° 0.1 mm 3 mps 758 mmHg 85%
    08:00 +31°C° 0.1 mm 3 mps 759 mmHg 82%
    09:00 +31°C° 0.1 mm 3 mps 758 mmHg 79%
    10:00 +33°C° 0.1 mm 3 mps 758 mmHg 75%
    11:00 +34°C° 0.1 mm 3 mps 758 mmHg 72%
    12:00 +34°C° 0.1 mm 3 mps 758 mmHg 71%
    13:00 +34°C° 0.1 mm 4 mps 757 mmHg 70%
    14:00 +34°C° 0.1 mm 4 mps 756 mmHg 70%
    15:00 +33°C° 0.1 mm 4 mps 756 mmHg 73%
    16:00 +33°C° 0.1 mm 4 mps 756 mmHg 76%
    17:00 +32°C° 0.1 mm 4 mps 756 mmHg 79%
    18:00 +30°C° 0 mm 3 mps 757 mmHg 82%
    19:00 +30°C° 0 mm 3 mps 757 mmHg 85%
    20:00 +29°C° 0 mm 3 mps 758 mmHg 89%
    21:00 +29°C° 0.3 mm 2 mps 758 mmHg 89%
    22:00 +29°C° 0.3 mm 2 mps 758 mmHg 90%
    23:00 +28°C° 0.3 mm 2 mps 758 mmHg 91%

    30 April, Tuesday

    Time Temperature Precipitation Wind Pressure Humidity
    00:00 +28°C° 0 mm 2 mps 758 mmHg 91%
    01:00 +28°C° 0 mm 2 mps 757 mmHg 91%
    02:00 +28°C° 0 mm 2 mps 757 mmHg 91%
    03:00 +28°C° 0 mm 2 mps 757 mmHg 92%
    04:00 +28°C° 0 mm 2 mps 757 mmHg 92%
    05:00 +28°C° 0 mm 2 mps 758 mmHg 92%
    06:00 +29°C° 0.1 mm 2 mps 758 mmHg 87%
    07:00 +30°C° 0.1 mm 2 mps 759 mmHg 82%
    08:00 +31°C° 0.1 mm 2 mps 759 mmHg 77%
    09:00 +33°C° 0 mm 3 mps 759 mmHg 72%
    10:00 +34°C° 0 mm 3 mps 759 mmHg 67%
    11:00 +36°C° 0 mm 3 mps 759 mmHg 62%
    12:00 +35°C° 0.1 mm 4 mps 758 mmHg 63%
    13:00 +35°C° 0.1 mm 4 mps 757 mmHg 65%
    14:00 +35°C° 0.1 mm 4 mps 756 mmHg 66%
    15:00 +34°C° 0 mm 4 mps 757 mmHg 69%
    16:00 +33°C° 0 mm 4 mps 757 mmHg 72%
    17:00 +32°C° 0 mm 4 mps 757 mmHg 75%
    18:00 +31°C° 0 mm 3 mps 758 mmHg 78%
    19:00 +30°C° 0 mm 3 mps 758 mmHg 82%
    20:00 +29°C° 0 mm 2 mps 759 mmHg 85%
    21:00 +29°C° 0 mm 2 mps 759 mmHg 86%
    22:00 +29°C° 0 mm 2 mps 758 mmHg 86%
    23:00 +29°C° 0 mm 2 mps 758 mmHg 87%

    1 May, Wednesday

    Time Temperature Precipitation Wind Pressure Humidity
    00:00 +29°C° 0.1 mm 2 mps 758 mmHg 88%
    01:00 +28°C° 0.1 mm 2 mps 757 mmHg 88%
    02:00 +28°C° 0.1 mm 2 mps 757 mmHg 89%
    03:00 +28°C° 0.6 mm 2 mps 757 mmHg 91%
    04:00 +28°C° 0.6 mm 2 mps 758 mmHg 92%
    05:00 +27°C° 0.6 mm 2 mps 758 mmHg 93%
    06:00 +29°C° 0.5 mm 1 mps 759 mmHg 88%
    07:00 +30°C° 0.5 mm 1 mps 759 mmHg 83%
    08:00 +31°C° 0.5 mm 1 mps 760 mmHg 78%
    09:00 +32°C° 0 mm 2 mps 759 mmHg 71%
    10:00 +35°C° 0 mm 2 mps 759 mmHg 63%
    11:00 +36°C° 0 mm 3 mps 759 mmHg 56%
    12:00 +36°C° 0 mm 4 mps 758 mmHg 58%
    13:00 +36°C° 0 mm 4 mps 758 mmHg 60%
    14:00 +35°C° 0 mm 5 mps 757 mmHg 61%
    15:00 +34°C° 0 mm 4 mps 757 mmHg 65%
    16:00 +33°C° 0 mm 4 mps 757 mmHg 69%
    17:00 +32°C° 0 mm 4 mps 758 mmHg 72%
    18:00 +31°C° 0 mm 3 mps 758 mmHg 76%
    19:00 +30°C° 0 mm 3 mps 758 mmHg 79%
    20:00 +29°C° 0 mm 3 mps 759 mmHg 83%
    21:00 +29°C° 0 mm 3 mps 759 mmHg 84%
    22:00 +29°C° 0 mm 2 mps 759 mmHg 84%
    23:00 +29°C° 0 mm 2 mps 758 mmHg 85%
    Show more